Wind_Speed
13 12 13 13 13 14 14 14 15 14 15 15 15 16 16 16 16 17 17 17 17 16 16 16 16 15 15 15 15 15 16 15 16 16 16 17 17 18 18 18 17 17 17
13 13 13 14 14 15 15 15 15 15 15 15 16 16 16 16 17 17 17 17 16 15 15 15 16 16 16 16 16 15 15 16 16 16 16 17 17 17 17 17 17 17 17
13 13 14 14 14 15 15 16 15 15 15 15 16 16 17 18 17 17 17 16 16 15 16 16 16 16 16 16 16 16 15 15 16 16 17 17 17 17 17 17 17 18 18
14 14 15 15 16 16 16 17 16 16 16 17 17 17 18 18 18 17 17 17 17 17 17 17 17 17 16 17 17 17 16 17 17 17 17 18 18 17 17 17 18 18 19
16 16 17 17 17 17 18 18 17 18 18 19 19 18 18 18 18 18 18 17 17 17 17 18 18 18 17 17 17 18 18 18 19 18 18 18 18 18 19 18 18 19 20
16 17 17 17 18 18 18 18 19 19 19 19 19 19 19 18 18 18 17 17 17 18 18 18 19 19 19 19 19 19 19 19 19 19 19 19 19 19 19 19 18 19 20
17 18 18 18 19 19 19 19 19 19 19 19 19 19 19 18 18 19 19 19 19 19 19 19 19 20 20 20 20 20 21 21 21 20 20 20 20 20 20 19 19 19 20
19 19 19 19 19 19 19 20 20 20 20 19 20 20 20 20 20 20 20 20 19 20 20 19 20 20 21 21 21 22 22 22 21 21 21 21 21 21 21 20 20 21 21
20 20 20 20 20 20 20 20 21 20 20 20 20 21 21 21 21 21 21 21 21 21 21 20 20 20 21 21 21 22 21 22 22 22 22 22 22 21 21 21 21 22 23
21 21 21 22 21 21 21 21 21 21 21 21 21 21 22 22 22 22 22 22 23 23 23 22 22 22 22 22 22 22 21 22 22 22 22 22 22 21 21 21 23 24 24
22 22 22 22 22 22 22 22 22 22 22 23 23 22 22 23 23 23 24 24 24 24 23 23 24 23 23 22 22 22 22 22 22 22 22 22 21 21 22 22 23 24 25
23 23 23 23 23 23 23 23 23 23 23 23 23 23 23 23 23 24 24 24 25 25 25 25 24 24 24 24 23 23 23 22 22 22 22 22 22 21 22 23 23 24 25
24 24 24 24 24 24 24 23 23 23 23 23 24 24 24 24 24 25 25 25 26 26 26 25 25 24 24 25 24 24 23 23 23 23 23 23 23 23 23 24 24 24 24
25 25 24 24 24 24 24 25 24 24 24 24 25 25 25 25 25 25 25 26 26 27 26 26 25 25 25 25 25 25 25 25 25 24 24 24 25 24 24 25 25 25 25
26 26 25 25 25 25 26 26 26 26 26 26 26 26 26 26 26 26 26 26 26 26 27 26 26 26 26 25 25 25 25 25 26 26 26 26 26 26 26 26 27 27 27
26 26 27 27 27 26 26 26 26 26 26 27 27 26 26 27 27 26 27 27 26 26 26 26 26 26 25 25 25 25 25 26 26 26 26 27 27 27 27 27 28 29 29
26 27 28 28 28 27 27 27 27 26 26 26 26 27 27 27 27 27 27 27 26 26 26 25 26 25 25 25 25 25 25 26 26 27 27 27 27 28 28 28 29 30 30
26 27 28 29 29 29 28 28 28 27 27 27 27 27 27 27 27 27 27 27 26 26 26 26 25 25 25 25 25 26 26 26 27 27 27 28 28 28 28 28 28 30 30
28 28 28 28 28 28 28 28 28 28 28 28 28 28 27 27 27 27 27 27 27 27 27 26 26 25 25 25 26 26 27 27 27 27 27 28 28 28 28 28 28 28 28
29 29 29 28 28 28 29 29 29 29 29 29 28 28 28 28 28 27 27 27 27 27 27 27 26 26 26 26 26 27 27 27 27 27 27 27 27 27 27 28 27 27 26
29 29 29 29 29 29 30 30 30 30 29 29 29 29 29 28 28 28 28 27 27 27 27 28 27 27 27 27 27 27 28 28 28 27 27 27 27 26 26 27 26 26 27
28 29 29 29 29 30 31 31 31 30 30 29 29 29 29 29 29 28 28 28 27 27 27 27 27 27 27 27 27 27 27 27 28 27 27 27 27 26 26 27 26 26 26
28 29 29 29 29 30 30 31 31 31 30 30 30 29 29 29 29 28 28 28 27 27 27 27 27 27 27 26 26 27 27 28 27 27 27 27 27 27 27 27 26 26 25
29 29 29 29 29 30 30 31 31 30 30 30 29 29 29 29 29 28 28 27 28 28 27 27 27 27 26 26 26 26 27 27 27 26 26 27 27 27 27 27 26 26 26
30 30 30 30 30 30 30 31 32 31 31 30 30 29 29 29 28 28 28 28 28 28 27 26 26 26 26 26 26 25 25 25 26 26 25 26 26 27 27 27 26 26 26
30 31 31 30 30 30 30 30 29 29 29 30 30 29 29 28 29 28 28 28 28 27 26 26 25 25 24 24 24 23 23 24 25 25 25 25 26 26 26 26 26 26 26
Wind_Direction
274 276 278 281 284 286 286 285 285 283 282 282 281 279 278 278 279 283 284 285 285 286 288 288 288 288 288 288 287 288 287 287 288 288 285 284 285 284 283 281 279 277 277
275 276 279 281 284 286 286 285 284 283 282 282 281 280 279 277 280 283 285 286 285 285 285 286 286 288 289 289 291 292 291 288 288 288 287 286 285 284 284 282 279 278 278
274 278 281 283 285 287 287 286 285 284 282 283 282 280 279 280 280 281 282 285 285 283 283 283 285 288 288 289 291 292 295 292 289 288 287 285 283 283 284 283 280 277 276
274 278 280 284 285 285 286 284 284 283 282 282 282 283 282 282 282 280 279 281 282 283 283 283 284 285 287 289 291 291 292 293 293 291 291 289 287 286 286 281 278 277 276
277 280 282 283 284 284 282 280 282 281 281 280 280 282 282 283 282 280 279 279 280 281 281 283 285 283 286 289 290 290 290 290 291 292 292 290 288 290 288 285 280 279 278
278 281 283 284 284 283 281 279 279 280 281 280 278 278 279 280 280 278 276 280 281 282 281 283 284 283 285 288 289 289 289 290 290 290 290 289 288 288 286 283 282 280 280
278 280 282 282 283 283 280 279 280 281 281 280 278 278 278 279 280 278 277 279 279 281 281 282 282 284 286 287 288 290 289 290 289 289 289 288 287 287 285 281 280 280 279
280 281 282 281 281 281 280 279 279 280 279 278 278 278 279 280 279 278 277 280 281 283 282 282 284 286 288 288 290 291 291 292 291 289 288 288 287 287 284 281 279 279 280
281 281 281 281 281 281 279 278 278 278 277 278 279 280 279 280 279 278 277 278 281 283 283 283 284 286 288 289 289 290 290 291 290 289 289 288 285 286 285 282 279 279 279
281 280 281 283 282 281 279 279 278 278 278 278 279 280 280 279 279 278 277 278 281 282 281 281 282 284 286 288 287 286 288 289 289 288 288 288 287 285 284 282 281 279 280
285 283 281 283 282 280 279 279 278 278 278 278 279 279 278 278 278 277 278 279 281 282 281 281 283 283 285 286 287 286 287 288 289 288 288 287 288 285 286 284 283 282 282
284 285 283 281 280 279 278 279 279 279 278 278 279 278 278 278 278 279 279 280 281 282 281 282 283 284 285 286 287 288 287 288 288 289 288 287 286 285 285 285 285 285 285
283 283 283 283 281 279 278 278 279 279 279 279 280 279 280 280 280 280 280 281 281 281 281 281 281 282 283 284 285 287 288 287 288 288 288 287 287 286 285 285 286 286 287
284 283 283 283 282 280 279 279 279 278 279 279 280 280 280 280 280 280 281 281 281 281 282 282 281 281 282 283 284 286 287 287 287 287 288 288 288 286 284 284 285 286 287
284 283 283 284 284 282 281 280 279 279 278 279 279 279 280 279 279 280 281 282 281 281 281 281 281 281 281 282 284 286 287 288 288 287 287 288 289 286 285 285 285 285 285
282 282 282 283 284 284 282 281 281 281 280 280 280 279 279 279 280 280 280 281 280 280 280 280 281 281 282 282 283 285 287 288 289 289 287 288 289 287 286 286 286 287 286
282 281 282 282 283 283 282 281 280 281 282 282 281 280 279 279 279 280 280 280 280 279 279 278 279 281 282 282 283 285 286 287 289 289 288 287 288 288 286 286 286 286 286
282 283 282 282 281 280 279 280 279 280 280 280 280 280 279 279 279 279 279 279 279 279 279 279 279 280 281 281 282 283 285 287 289 290 290 289 290 289 288 287 286 286 286
280 282 282 282 281 280 278 279 279 279 279 279 278 278 278 279 279 279 279 279 278 278 279 281 281 280 280 280 281 283 285 288 290 290 290 290 291 291 289 288 287 287 287
280 281 281 281 280 280 279 279 279 278 278 278 277 276 276 278 278 278 278 278 279 279 279 280 281 281 280 280 282 283 285 288 290 290 290 290 291 293 293 291 288 287 285
280 280 281 280 280 280 280 278 279 278 277 277 276 275 275 275 275 276 276 277 277 278 279 279 279 280 280 281 283 285 286 288 289 289 289 290 290 293 294 294 291 288 287
282 281 282 282 282 281 281 279 279 278 277 275 275 275 274 273 273 273 274 276 276 276 277 279 279 280 282 282 284 286 287 288 288 289 289 289 290 291 294 295 294 292 290
283 283 283 283 283 283 283 281 279 278 278 276 274 273 273 272 272 272 273 274 275 277 278 279 279 280 282 283 284 285 285 286 287 288 290 291 291 290 292 294 295 294 292
285 285 285 285 284 284 283 282 280 278 277 276 274 273 273 272 271 271 271 272 274 276 278 280 279 280 281 281 283 284 285 285 286 288 291 292 291 290 291 293 295 294 292
286 286 286 285 284 284 283 282 280 277 276 275 273 273 272 271 270 270 269 271 274 275 277 278 279 279 279 282 283 284 285 287 288 290 292 293 293 292 291 290 292 294 293
286 286 286 286 285 284 284 283 281 277 274 272 272 272 271 270 269 269 270 272 274 274 275 276 277 277 279 283 284 286 286 288 289 290 292 294 294 294 292 289 290 291 291
Height
5830 5830 5830 5830 5830 5830 5830 5830 5829 5829 5829 5829 5828 5828 5828 5828 5828 5828 5827 5827 5826 5826 5825 5825 5825 5824 5824 5823 5822 5822 5821 5820 5820 5820 5819 5819 5818 5818 5817 5817 5816 5816 5816
5827 5827 5827 5827 5827 5827 5827 5826 5826 5826 5825 5825 5825 5825 5824 5824 5824 5824 5823 5823 5822 5822 5822 5821 5821 5820 5820 5820 5819 5818 5818 5817 5816 5816 5815 5815 5815 5814 5813 5813 5812 5812 5812
5824 5824 5824 5824 5824 5824 5823 5823 5822 5822 5822 5822 5821 5821 5821 5821 5820 5820 5820 5819 5819 5819 5818 5818 5817 5817 5816 5816 5815 5815 5814 5813 5813 5812 5812 5811 5810 5810 5809 5808 5808 5808 5808
5821 5821 5821 5821 5821 5820 5819 5819 5819 5818 5818 5818 5817 5817 5816 5816 5816 5816 5816 5815 5815 5815 5814 5814 5814 5813 5813 5812 5811 5811 5810 5810 5809 5808 5807 5806 5805 5805 5805 5804 5803 5803 5803
5818 5818 5818 5817 5817 5816 5816 5815 5815 5814 5814 5814 5813 5813 5812 5812 5811 5811 5811 5811 5811 5810 5810 5810 5809 5809 5808 5808 5807 5807 5806 5805 5805 5804 5803 5802 5801 5800 5799 5799 5799 5799 5798
5815 5814 5814 5813 5813 5812 5811 5811 5810 5810 5810 5809 5808 5808 5808 5807 5807 5807 5807 5807 5806 5806 5805 5805 5805 5804 5804 5803 5803 5802 5801 5801 5800 5799 5798 5797 5796 5795 5794 5794 5794 5794 5793
5811 5810 5810 5809 5809 5808 5807 5806 5806 5805 5805 5804 5804 5804 5803 5803 5802 5802 5802 5802 5802 5801 5801 5800 5800 5799 5799 5798 5798 5797 5796 5795 5795 5794 5793 5792 5791 5790 5789 5789 5788 5788 5788
5807 5806 5805 5805 5804 5803 5803 5802 5801 5801 5800 5800 5799 5799 5799 5798 5797 5797 5797 5797 5797 5796 5796 5795 5795 5794 5793 5793 5792 5791 5791 5790 5789 5788 5787 5787 5786 5785 5784 5783 5782 5782 5782
5802 5801 5801 5800 5799 5799 5798 5797 5797 5796 5795 5795 5794 5794 5794 5793 5793 5792 5792 5792 5792 5791 5791 5790 5790 5789 5788 5787 5786 5786 5785 5784 5783 5782 5781 5780 5779 5778 5777 5776 5776 5776 5776
5797 5796 5795 5795 5794 5794 5793 5793 5792 5791 5790 5790 5789 5789 5788 5788 5787 5787 5787 5786 5786 5785 5785 5785 5784 5783 5783 5782 5781 5780 5779 5778 5777 5776 5775 5774 5773 5772 5771 5770 5769 5769 5769
5792 5791 5790 5790 5789 5788 5788 5787 5786 5786 5785 5784 5784 5783 5783 5782 5782 5782 5781 5780 5780 5779 5779 5778 5778 5777 5777 5776 5775 5774 5773 5772 5771 5770 5769 5768 5767 5766 5765 5764 5763 5762 5761
5787 5786 5785 5784 5783 5783 5782 5781 5781 5780 5779 5779 5778 5777 5777 5776 5776 5775 5775 5774 5774 5773 5772 5772 5771 5771 5770 5769 5768 5768 5767 5766 5764 5763 5762 5761 5760 5759 5758 5757 5756 5755 5754
5781 5780 5779 5778 5777 5777 5776 5775 5775 5774 5773 5772 5772 5771 5771 5770 5770 5769 5769 5768 5767 5766 5765 5765 5765 5764 5763 5763 5762 5761 5760 5759 5758 5757 5755 5754 5753 5752 5751 5750 5749 5748 5746
5775 5774 5773 5772 5771 5770 5770 5769 5768 5767 5767 5766 5765 5765 5764 5764 5763 5762 5762 5761 5760 5759 5758 5758 5758 5757 5756 5755 5755 5754 5753 5752 5750 5749 5748 5747 5746 5745 5744 5742 5741 5740 5739
5769 5768 5766 5765 5764 5764 5763 5762 5761 5760 5759 5759 5758 5758 5757 5757 5756 5755 5755 5754 5753 5752 5751 5751 5750 5750 5749 5748 5747 5747 5745 5744 5743 5742 5740 5739 5738 5736 5735 5734 5733 5732 5731
5762 5761 5760 5759 5757 5756 5756 5755 5754 5753 5752 5752 5751 5750 5750 5749 5749 5748 5747 5746 5746 5745 5744 5744 5743 5742 5742 5741 5740 5739 5738 5737 5735 5734 5732 5731 5729 5728 5727 5725 5724 5723 5722
5756 5754 5753 5752 5750 5749 5748 5747 5746 5746 5745 5744 5744 5743 5742 5741 5741 5740 5740 5739 5738 5738 5737 5737 5736 5735 5734 5734 5733 5732 5730 5729 5728 5726 5724 5723 5721 5720 5718 5716 5715 5713 5712
5748 5747 5745 5744 5743 5741 5740 5740 5739 5738 5737 5737 5736 5735 5734 5734 5733 5733 5732 5732 5731 5730 5729 5729 5728 5728 5727 5726 5725 5724 5723 5721 5720 5718 5716 5715 5713 5711 5709 5707 5706 5704 5702
5741 5739 5738 5736 5735 5734 5733 5732 5731 5730 5729 5729 5728 5727 5727 5726 5725 5725 5725 5724 5723 5723 5722 5721 5721 5720 5720 5719 5718 5717 5715 5714 5712 5710 5708 5706 5704 5702 5700 5699 5697 5695 5693
5732 5731 5730 5728 5727 5726 5724 5723 5722 5721 5721 5720 5720 5719 5718 5718 5717 5717 5717 5716 5716 5715 5715 5714 5714 5713 5712 5711 5710 5709 5707 5706 5704 5702 5700 5698 5695 5693 5691 5688 5687 5685 5684
5725 5723 5721 5720 5719 5717 5716 5715 5714 5713 5712 5712 5711 5710 5710 5710 5709 5709 5709 5708 5708 5708 5707 5707 5706 5706 5705 5704 5702 5701 5699 5698 5696 5694 5692 5690 5687 5685 5682 5680 5678 5676 5675
5717 5715 5714 5712 5711 5709 5707 5706 5705 5704 5703 5703 5702 5702 5702 5701 5701 5701 5701 5701 5700 5700 5700 5699 5698 5698 5697 5696 5694 5693 5691 5689 5688 5686 5684 5682 5679 5677 5674 5672 5670 5668 5666
5708 5707 5705 5704 5702 5700 5699 5697 5696 5695 5694 5694 5694 5693 5693 5693 5693 5693 5693 5692 5692 5692 5692 5691 5691 5690 5689 5688 5686 5685 5683 5681 5680 5678 5676 5674 5671 5669 5667 5665 5662 5660 5658
5700 5698 5697 5695 5694 5692 5690 5688 5687 5686 5685 5685 5685 5684 5684 5685 5684 5684 5684 5684 5684 5684 5684 5683 5682 5682 5680 5679 5678 5677 5675 5673 5672 5670 5668 5666 5664 5661 5659 5657 5655 5653 5651
5691 5690 5688 5686 5685 5683 5681 5679 5678 5677 5677 5676 5676 5676 5676 5676 5676 5676 5676 5676 5676 5676 5676 5675 5674 5673 5673 5671 5670 5669 5667 5666 5664 5662 5661 5658 5656 5654 5652 5650 5648 5646 5644
5682 5681 5679 5677 5675 5673 5672 5670 5669 5668 5667 5667 5667 5667 5667 5667 5667 5667 5668 5667 5667 5667 5667 5667 5666 5666 5665 5664 5662 5661 5660 5658 5656 5655 5653 5651 5649 5647 5645 5643 5641 5639 5636